Location: Observatoire de Paris
(48.8363°N, 2.3365°E)
Time: 19:39:56
(UTC+01:00)

Courier 1B Rocket - Visible Passes

Search period start: 27 July 2021 00:00
Search period end: 06 August 2021 00:00
Orbit: 920 x 1202 km, 28.2° (Epoch: 26 July)

Date Brightness Start Highest point End Pass type
(mag) Time Alt. Az. Time Alt. Az. Time Alt. Az.
01 Aug 6.8 04:12:53 10° SSW 04:14:18 11° S 04:15:43 10° SSE visible
02 Aug 6.9 03:14:50 10° SSE 03:14:50 10° SSE 03:15:00 10° SSE visible
03 Aug 6.8 04:03:59 10° SSW 04:05:05 11° S 04:06:38 10° S visible
05 Aug 6.9 03:56:12 10° S 03:56:12 10° S 03:56:37 10° S visible
